Showing default

MERIDIAN 8, 44453

Orbit data source: Space-Track

MERIDIAN 8, 44453 is a payload satellite owned by VVKO VKS (CIS) in HEO that was launched on Tue, 30 Jul 2019 UTC via a SOYUZ-2-1A launch vehicle from the Plesetsk Missile And Space Complex (PKMTR). Payload-class satellites include a variety of spacecraft equipped with specific instruments for various scientific and technological missions. These include communications satellites like Starlink; space stations such as the ISS; scientific satellites like the Hubble; Earth observation satellites from companies like Planet Labs, Umbra, and HawkEye 360; GPS; miniature CubeSats for education and research; and military/defense satellites.

Loading next visibility...
Identifier
44453, 2019-046A
Orbit
HEO
Country
Flag of CISCIS
Related business
Manufacturer
Resehetnev ISS
Mission
Partially operational Defense Communications
Bus & Motor
MERIDIAN, Unknown motor
Mass
~2,000 kg wet, ~2,000 kg dry
Launch date (UTC)
2019-07-30 (6 years ago)
Launch vehicle
SOYUZ-2-1A
Launch site
Plesetsk Missile And Space Complex (PKMTR)
Object type
Payload
Rocket body
Debris
Shape & HBR
Box + 2 Pan, 5.0 m
Radar Cross Section
14.304 m², Large (>1 m²)

Expand to show TLE details & history
Last TLE update: 4 days ago

TLE from 4 days ago
0 MERIDIAN 8
1 44453U 19046A   25255.58105457  .00000098  00000-0  00000-0 0  9991
2 44453  62.8944  85.6480 6967359 274.0694  15.8200  2.00615696 44776
Epoch: 2025-09-12T13:56Z
TLE epoch observation values (Epoch: 2025-09-12T13:56:43.114Z)
Latitude
-0.00006°
Longitude
-115.37091°
Altitude
6,636.784 km
Speed
6.801 km/s
True Right ascension
05h 42m 32s
True Declination
0° 00' 00"
Sunlit
Object was in daylight at epoch
Visualization orbit readout
Latitude
Unknown
Longitude
Unknown
Altitude
Unknown
Speed
Unknown
Apparent Right ascension
Unknown
Apparent Declination
Unknown
Sunlit
N/A
Visualization observer readout
Local Sidereal Time
06:22:53
Azimuth
Unknown
Elevation
Unknown
Doppler factor
Unknown
Orbital elements
Apogee altitude
38,678.547 km
Perigee altitude
1,675.017 km
Semi-major axis
26,554.919 km
Eccentricity
0.69674
Inclination
62.8944°
RAAN
85.648°
Arg. of periapsis
274.0694°
True anomaly
86.08756°
Mean anomaly
15.82°
Eccentric anomaly
43.09248°
Mean motion
0.50156 °/min
Orbital period
717.76 mins
BSTAR
0
Loading maneuver chart data...
Computing Atmospheric mass density...
Loading historical data...
Loading historical data...
Loading historical data...
Loading historical data...
Loading historical data...
Loading historical data...
Loading historical data...
Other satellites on launch #46 in the year 2019 (2019-07-30 UTC)

Documentation

Showing up to 5 results
|